Change the Weather History Date:

Friday, July 12, 2013

  Actual Average Record
Temperature  
Mean Temperature 73 °F -  
Max Temperature 75 °F 85 °F 94 °F (1981)
Min Temperature 71 °F 65 °F 51 °F (1978)
Cooling Degree Days 8    
Growing Degree Days 23 (Base 50)    
Moisture  
Dew Point 70 °F    
Average Humidity 91    
Maximum Humidity 96    
Minimum Humidity 81    
Precipitation  
Precipitation 2.44 in - - ()
Sea Level Pressure  
Sea Level Pressure 29.95 in    
Wind  
Wind Speed 5 mph (ENE)    
Max Wind Speed 16 mph    
Max Gust Speed 24 mph    
Visibility 5 miles    
Events Fog , Rain    
Averages and records for this station are not official NWS values.
T = Trace of Precipitation, MM = Missing Value Source: NWS Daily Summary

Daily Weather History Graph

Daily Weather History Graph

Search for Another Location

Airport or City:

Trip Planner

Search our weather history database for the weather conditions in past years. The results will help you decide how hot, cold, wet, or windy it might be!

Date:

Astronomy

Jul. 12, 2013 Rise Set
Actual Time 5:43 AM EDT 8:27 PM EDT
Civil Twilight 5:12 AM EDT 8:59 PM EDT
Nautical Twilight 4:32 AM EDT 9:38 PM EDT
Astronomical Twilight 3:47 AM EDT 10:23 PM EDT
Moon 9:56 AM EDT (7/12) 10:38 PM EDT (7/12)
Length of Visible Light 15h 46m
Length of Day
14h 43m
Waxing Crescent, 17% of the Moon is Illuminated
Jul 12
Waxing Crescent
Jul 15
First Quarter
Jul 22
Full
Jul 29
Last Quarter
Aug 6
New

Hourly Weather History & Observations

Time (EDT) Temp. Dew Point Humidity Pressure Visibility Wind Dir Wind Speed Gust Speed Precip Events Conditions
12:54 AM 73.9 °F 72.0 °F 93% 29.91 in 5.0 mi Calm Calm - N/A   Partly Cloudy
1:54 AM 73.0 °F 71.1 °F 93% 29.91 in 5.0 mi Calm Calm - N/A   Clear
2:15 AM 73.4 °F 71.6 °F 94% 29.91 in 4.0 mi Calm Calm - N/A   Mostly Cloudy
2:23 AM 73.4 °F 71.6 °F 94% 29.91 in 4.0 mi Calm Calm - N/A   Mostly Cloudy
2:54 AM 73.9 °F 72.0 °F 93% 29.91 in 5.0 mi Calm Calm - N/A   Overcast
3:23 AM 73.4 °F 71.6 °F 94% 29.92 in 4.0 mi Calm Calm - N/A   Mostly Cloudy
3:34 AM 73.4 °F 71.6 °F 94% 29.92 in 3.0 mi Calm Calm - N/A   Scattered Clouds
3:54 AM 73.0 °F 71.1 °F 93% 29.91 in 4.0 mi Calm Calm - N/A   Clear
4:07 AM 73.4 °F 71.6 °F 94% 29.91 in 3.0 mi Calm Calm - N/A   Scattered Clouds
4:16 AM 73.4 °F 71.6 °F 94% 29.91 in 2.5 mi Calm Calm - N/A   Mostly Cloudy
4:22 AM 73.4 °F 71.6 °F 94% 29.91 in 3.0 mi Calm Calm - N/A   Mostly Cloudy
4:54 AM 73.0 °F 72.0 °F 96% 29.91 in 3.0 mi ENE 3.5 mph - N/A   Overcast
5:54 AM 73.0 °F 71.1 °F 93% 29.93 in 3.0 mi NE 3.5 mph - N/A   Mostly Cloudy
6:03 AM 73.4 °F 71.6 °F 94% 29.93 in 4.0 mi NE 3.5 mph - N/A   Scattered Clouds
6:54 AM 73.0 °F 68.0 °F 84% 29.94 in 7.0 mi NNE 8.1 mph - N/A   Partly Cloudy
7:54 AM 73.0 °F 66.9 °F 81% 29.95 in 9.0 mi ENE 8.1 mph - N/A   Scattered Clouds
8:54 AM 73.0 °F 68.0 °F 84% 29.96 in 8.0 mi ENE 9.2 mph - 0.00 in Rain Light Rain
9:39 AM 73.4 °F 68.0 °F 83% 29.96 in 6.0 mi ENE 6.9 mph - 0.01 in Rain Light Rain
9:54 AM 73.0 °F 69.1 °F 87% 29.96 in 5.0 mi NE 5.8 mph - 0.01 in Rain Light Rain
10:54 AM 75.0 °F 70.0 °F 84% 29.97 in 6.0 mi NE 9.2 mph - 0.01 in Rain Light Rain
11:47 AM 75.2 °F 69.8 °F 83% 29.97 in 6.0 mi ENE 11.5 mph - 0.01 in Rain Light Rain
11:54 AM 75.0 °F 70.0 °F 84% 29.97 in 6.0 mi ENE 10.4 mph - 0.01 in Rain Light Rain
12:27 PM 73.4 °F 69.8 °F 88% 29.98 in 5.0 mi NE 10.4 mph - 0.00 in Rain Light Rain
12:54 PM 73.9 °F 70.0 °F 87% 29.97 in 3.0 mi ENE 12.7 mph - 0.02 in Rain Light Rain
1:07 PM 73.4 °F 69.8 °F 88% 29.97 in 4.0 mi ENE 10.4 mph - 0.01 in Rain Light Rain
1:54 PM 73.9 °F 70.0 °F 87% 29.96 in 5.0 mi ENE 13.8 mph - 0.03 in Rain Light Rain
2:08 PM 73.4 °F 69.8 °F 88% 29.97 in 4.0 mi ENE 9.2 mph - 0.01 in Rain Light Rain
2:21 PM 73.4 °F 69.8 °F 88% 29.97 in 2.5 mi NE 10.4 mph - 0.03 in Rain Rain
2:43 PM 73.4 °F 69.8 °F 88% 29.96 in 3.0 mi NE 10.4 mph - 0.06 in Rain Light Rain
2:54 PM 73.9 °F 70.0 °F 87% 29.97 in 2.5 mi ENE 11.5 mph - 0.09 in Rain Rain
3:04 PM 73.4 °F 69.8 °F 88% 29.97 in 2.5 mi NE 11.5 mph - 0.03 in Rain Rain
3:12 PM 73.4 °F 69.8 °F 88% 29.97 in 1.8 mi NE 13.8 mph - 0.07 in Rain Heavy Rain
3:54 PM 72.0 °F 70.0 °F 93% 29.96 in 1.5 mi NNE 13.8 mph - 0.41 in Rain Heavy Rain
4:21 PM 71.6 °F 69.8 °F 94% 29.96 in 2.5 mi ENE 9.2 mph - 0.13 in Rain Rain
4:29 PM 71.6 °F 69.8 °F 94% 29.96 in 1.2 mi ENE 8.1 mph - 0.18 in Rain Heavy Rain
4:54 PM 72.0 °F 70.0 °F 93% 29.94 in 1.2 mi NE 16.1 mph 21.9 mph 0.36 in Rain Heavy Rain
5:08 PM 71.6 °F 69.8 °F 94% 29.94 in 1.2 mi NNE 10.4 mph - 0.12 in Rain Heavy Rain
5:16 PM 71.6 °F 69.8 °F 94% 29.94 in 1.0 mi NE 10.4 mph 19.6 mph 0.23 in Rain Heavy Rain
5:20 PM 71.6 °F 69.8 °F 94% 29.95 in 0.8 mi NE 9.2 mph 19.6 mph 0.32 in Rain Heavy Rain
5:33 PM 71.6 °F 69.8 °F 94% 29.94 in 0.8 mi NE 6.9 mph - 0.57 in Rain Heavy Rain
5:54 PM 73.0 °F 70.0 °F 90% 29.93 in 0.8 mi ENE 10.4 mph - 0.95 in Rain Heavy Rain
6:02 PM 73.4 °F 71.6 °F 94% 29.92 in 1.0 mi ENE 15.0 mph 20.7 mph 0.06 in Rain Heavy Rain
6:32 PM 73.4 °F 71.6 °F 94% 29.94 in 0.5 mi ESE 16.1 mph 21.9 mph 0.54 in Fog , Rain Heavy Rain
6:42 PM 71.6 °F 69.8 °F 94% 29.94 in 3.0 mi SSE 10.4 mph 24.2 mph 0.55 in Rain Light Rain
6:49 PM 73.4 °F 69.8 °F 88% 29.94 in 10.0 mi ESE 12.7 mph 23.0 mph 0.55 in   Overcast
6:54 PM 73.0 °F 70.0 °F 90% 29.95 in 10.0 mi ESE 16.1 mph 23.0 mph 0.55 in   Mostly Cloudy
7:16 PM 73.4 °F 71.6 °F 94% 29.95 in 8.0 mi ESE 8.1 mph - 0.00 in Rain Light Rain
7:23 PM 73.4 °F 71.6 °F 94% 29.95 in 10.0 mi East 10.4 mph - 0.00 in   Mostly Cloudy
7:54 PM 73.0 °F 71.1 °F 93% 29.96 in 10.0 mi ESE 12.7 mph - 0.00 in   Mostly Cloudy
8:54 PM 73.0 °F 70.0 °F 90% 29.98 in 10.0 mi East 12.7 mph - N/A   Mostly Cloudy
9:38 PM 71.6 °F 69.8 °F 94% 29.99 in 9.0 mi East 12.7 mph - N/A   Overcast
9:54 PM 72.0 °F 70.0 °F 93% 30.00 in 9.0 mi ESE 10.4 mph - N/A   Overcast
10:25 PM 71.6 °F 69.8 °F 94% 30.01 in 9.0 mi East 9.2 mph - N/A   Overcast
10:54 PM 72.0 °F 69.1 °F 91% 30.01 in 8.0 mi ESE 9.2 mph - N/A   Overcast
11:25 PM 71.6 °F 69.8 °F 94% 30.02 in 7.0 mi ESE 5.8 mph - N/A   Overcast
11:54 PM 71.1 °F 69.1 °F 93% 30.02 in 7.0 mi ESE 6.9 mph - N/A   Overcast